Overview Statistics Trail Chart Weather Telemetry Raw packets
 

This is the latest recevied weather packets stored in our database for station/object N6GPM. If no packets are shown the sender has not sent any weather packets the latest 10 day(s).

<< 79 80 81 82 83 84 85 >>
Time Temp. Humidity Pressure Rain* Wind** Luminosity Snow
1788105391 26.67° C 48% 1017.4 hPa 0 mm - 464 W/m² -
1788105086 26.67° C 49% 1017.4 hPa 0 mm - 434 W/m² -
1788104780 26.67° C 50% 1017.5 hPa 0 mm - 426 W/m² -
1788104476 26.11° C 50% 1017.4 hPa 0 mm - 404 W/m² -
1788104173 25.56° C 52% 1017.3 hPa 0 mm - 383 W/m² -
1788103867 25.56° C 52% 1017.3 hPa 0 mm - 250 W/m² -
1788103567 25° C 55% 1017.3 hPa 0 mm - 342 W/m² -
1788103265 25° C 55% 1017.2 hPa 0 mm - 320 W/m² -
1788102960 25° C 57% 1017.3 hPa 0 mm - 299 W/m² -
1788102655 25° C 57% 1017.4 hPa 0 mm - 277 W/m² -
1788102355 24.44° C 58% 1017.3 hPa 0 mm - 260 W/m² -
1788102049 24.44° C 59% 1017.5 hPa 0 mm - 238 W/m² -
1788101744 24.44° C 60% 1017.3 hPa 0 mm - 217 W/m² -
1788101439 23.89° C 60% 1017.3 hPa 0 mm - 195 W/m² -
1788101135 23.89° C 62% 1017.3 hPa 0 mm - 177 W/m² -
1788100830 23.89° C 63% 1017.2 hPa 0 mm - 160 W/m² -
1788100526 23.89° C 63% 1017.4 hPa 0 mm - 143 W/m² -
1788100224 23.89° C 64% 1017.4 hPa 0 mm - 129 W/m² -
1788099920 23.89° C 64% 1017.4 hPa 0 mm - 117 W/m² -
1788099615 23.89° C 64% 1017.5 hPa 0 mm - 111 W/m² -
1788099310 23.89° C 65% 1017.3 hPa 0 mm - 104 W/m² -
1788099010 23.33° C 67% 1017.4 hPa 0 mm - 91 W/m² -
1788098710 23.33° C 67% 1017.4 hPa 0 mm - 75 W/m² -
1788098405 22.78° C 69% 1017.2 hPa 0 mm - 61 W/m² -
1788098106 22.78° C 71% 1017 hPa 0 mm - 49 W/m² -

* Rain latest hour (hover to see other rain measurements)
** Current wind speed in m/s (hover to see current wind gust speed)